Location: Poughquag
(41.6090°N, 73.6820°W)
Time: 18:25:37
(UTC-05:00)

Tiangong - Visible Passes

Search period start: 08 December 2022 00:00
Search period end: 18 December 2022 00:00
Orbit: 386 x 392 km, 41.5° (Epoch: 08 December)

Date Brightness Start Highest point End Pass type
(mag) Time Alt. Az. Time Alt. Az. Time Alt. Az.
08 Dec -2.1 16:57:10 10° W 17:00:21 84° S 17:03:33 10° E visible
08 Dec -0.3 18:34:13 10° W 18:36:30 30° SW 18:36:30 30° SW visible
09 Dec -1.3 17:35:53 10° W 17:38:59 49° SSW 17:41:25 15° SE visible
10 Dec 0.3 18:14:55 10° WSW 18:17:21 20° SSW 18:18:48 15° S visible
11 Dec -0.3 17:16:19 10° W 17:19:11 31° SSW 17:22:03 10° SE visible
12 Dec 1.0 17:56:07 10° WSW 17:57:21 12° SSW 17:58:35 10° S visible
13 Dec 0.8 16:56:48 10° WSW 16:59:09 19° SSW 17:01:29 10° SSE visible
